Regional Weather Roundup
Issued by NWS Bismarck, ND

Home | Current Version | Previous Version | Text Only | Print | Product List | Glossary On
Versions: 1 2 3 4 5 6 7 8 9 10 11 12 13 14 15 16 17 18 19 20 21 22 23 24 25 26 27 28 29 30 31 32 33 34 35 36 37 38 39 40 41 42 43 44 45 46 47 48 49 50
000
ASUS43 KBIS 182210
RWRBIS

NWR BROADCAST TEXT
NATIONAL WEATHER SERVICE BISMARCK ND
500 PM CDT FRI AUG 18 2017

NOTE: "FAIR" INDICATES FEW OR NO CLOUDS BELOW 12,000 FEET WITH NO
SIGNIFICANT WEATHER AND/OR OBSTRUCTIONS TO VISIBILITY.


CITY           SKY/WX    TMP DP  RH WIND       PRES   REMARKS
WILLISTON      SUNNY     84  50  30 VRB3      29.89F
MINOT          SUNNY     83  48  29 W10       29.88F
MINOT AFB      SUNNY     83  44  25 NW10      29.87F
BISMARCK       SUNNY     82  52  35 VRB6      29.92F
DICKINSON      SUNNY     83  47  28 N9        29.93F
GARRISON         N/A     78  50  37 NW10G24   29.90F
HETTINGER ARPT SUNNY     83  46  27 W6        29.97F
JAMESTOWN      SUNNY     77  58  51 CALM      29.89F
CARRINGTON     FAIR      77  55  47 NW10G18   29.92S
HAZEN          FAIR      81  48  32 NW6G15    29.93F
LINTON           N/A     79  52  38 N13       29.95S
MANDAN         FAIR      79  55  44 N7        29.94S
RUGBY          FAIR      81  48  32 NW12      29.87F
STANLEY        FAIR      81  50  34 VRB5      29.93F
TIOGA          FAIR      79  46  31 W8G16     29.92F
WATFORD CITY   FAIR      84  45  24 VRB5G14   29.90F
$$

CITY           SKY/WX    TMP DP  RH WIND       PRES   REMARKS
GRAND FORKS    MOSUNNY   81  57  43 NW10      29.82F
GRAND FORKS AF SUNNY     80  55  41 N8        29.84S
DEVILS LAKE    PTSUNNY   78  53  41 NW12      29.88F
FARGO          MOSUNNY   79  62  56 W10       29.86S
CANDO          FAIR      81  54  39 NW7G15    29.89F
CAVALIER       FAIR      81  54  39 NW8       29.81F
GRAFTON        FAIR      81  55  41 W9        29.84S
GWINNER        PTCLDY    75  59  57 NW8       29.89S
LANGDON        FAIR      79  52  38 NW14      29.87F
ROLLA          FAIR      79  52  38 W8        29.89F
WALHALLA       FAIR      81  79  94 W10       29.82S
$$

CITY           SKY/WX    TMP DP  RH WIND       PRES   REMARKS
ABERDEEN       SUNNY     77  58  51 N15       29.91S
MOBRIDGE       SUNNY     82  57  42 N5        29.92F
BUFFALO          N/A     86  43  22 N6        29.91F
RAPID CITY     SUNNY     84  40  21 E6G15     30.00F
GLASGOW        SUNNY     88  36  15 S9        29.85F
SIDNEY         SUNNY     85  51  31 E6        29.88F
WOLF POINT     SUNNY     90  38  16 SW6       29.86F
GLENDIVE       MOSUNNY   91  38  15 W14G20    29.90F
MILES CITY     SUNNY     91  32  12 SW10      29.90F
BAKER          MOSUNNY   88  36  15 NW12      29.95F
$$

CITY           SKY/WX    TMP DP  RH WIND       PRES   REMARKS
BILLINGS       SUNNY     89  35  14 SW13      29.95F
GREAT FALLS    SUNNY     90  26  10 W16G26    29.92F
REGINA         MOSUNNY   82  41  23 W8        29.84F
ESTEVAN        MOSUNNY   82  46  28 SW6       29.87F
$$





USA.gov is the U.S. government's official web portal to all federal, state and local government web resources and services.